Weather History for KCBE - February, 2013

Change the Weather History Date:

Friday, February 15, 2013

  Actual Average (KMRB) Record (KMRB)
Temperature  
Mean Temperature 39 °F 34 °F  
Max Temperature 50 °F 43 °F 78 °F (1954)
Min Temperature 28 °F 24 °F 0 °F (1943)
Degree Days  
Heating Degree Days 26 31  
Month to date heating degree days 487  
Since 1 July heating degree days 3570  
Cooling Degree Days 0 0  
Month to date cooling degree days 0  
Year to date cooling degree days 0  
Moisture  
Dew Point 30 °F    
Average Humidity 80    
Maximum Humidity 100    
Minimum Humidity 43    
Precipitation  
Precipitation 0.00 in 0.08 in 0.90 in (1928)
Month to date precipitation 1.23  
Year to date precipitation 3.67  
Sea Level Pressure  
Sea Level Pressure 30.02 in    
Wind  
Wind Speed 3 mph (West)    
Max Wind Speed 17 mph    
Max Gust Speed 21 mph    
Visibility 8 miles    
Events      
T = Trace of Precipitation, MM = Missing Value Source: NWS Daily Summary

Daily Weather History Graph

Daily Weather History Graph

Search for Another Location

Airport or City:

Trip Planner

Search our weather history database for the weather conditions in past years. The results will help you decide how hot, cold, wet, or windy it might be!

Date:

Astronomy

Feb. 15, 2013 Rise Set
Actual Time 7:07 AM EST 5:51 PM EST
Civil Twilight 6:39 AM EST 6:19 PM EST
Nautical Twilight 6:07 AM EST 6:50 PM EST
Astronomical Twilight 5:36 AM EST 7:22 PM EST
Moon 9:43 AM EST (2/15) 11:49 PM EST (2/15)
Length of Visible Light 11h 39m
Length of Day
10h 44m
Waxing Crescent, 30% of the Moon is Illuminated
Feb 15
Waxing Crescent
Feb 17
First Quarter
Feb 25
Full
Mar 4
Last Quarter
Mar 11
New

Hourly Weather History & Observations

Time (EST) Temp. Windchill Dew Point Humidity Pressure Visibility Wind Dir Wind Speed Gust Speed Precip Events Conditions
12:12 AM 32.0 °F 27.5 °F 30.2 °F 93% 29.99 in 7.0 mi NNW 4.6 mph - N/A   Scattered Clouds
12:32 AM 32.0 °F 26.4 °F 30.2 °F 93% 29.99 in 7.0 mi ENE 5.8 mph - N/A   Scattered Clouds
12:52 AM 30.2 °F 26.7 °F 30.2 °F 100% 29.98 in 7.0 mi West 3.5 mph - N/A   Scattered Clouds
1:12 AM 30.2 °F - 30.2 °F 100% 29.98 in 7.0 mi Calm Calm - N/A   Clear
1:32 AM 30.2 °F - 30.2 °F 100% 29.98 in 7.0 mi Calm Calm - N/A   Clear
1:52 AM 30.2 °F - 30.2 °F 100% 29.98 in 7.0 mi Calm Calm - N/A   Clear
2:12 AM 30.2 °F - 30.2 °F 100% 29.98 in 7.0 mi Calm Calm - N/A   Clear
2:32 AM 30.2 °F - 30.2 °F 100% 29.98 in 7.0 mi Calm Calm - N/A   Clear
2:52 AM 30.2 °F - 30.2 °F 100% 29.98 in 7.0 mi Calm Calm - N/A   Clear
3:13 AM 28.4 °F - 28.4 °F 100% 29.99 in 5.0 mi Calm Calm - N/A   Clear
3:33 AM 28.4 °F - 28.4 °F 100% 29.99 in 7.0 mi Calm Calm - N/A   Clear
3:53 AM 30.2 °F - 30.2 °F 100% 30.00 in 5.0 mi Calm Calm - N/A   Scattered Clouds
4:13 AM 28.4 °F - 28.4 °F 100% 30.00 in 7.0 mi Calm Calm - N/A   Mostly Cloudy
4:33 AM 28.4 °F - 28.4 °F 100% 30.00 in 7.0 mi Calm Calm - N/A   Scattered Clouds
4:53 AM 28.4 °F - 28.4 °F 100% 30.01 in 7.0 mi Calm Calm - N/A   Scattered Clouds
5:13 AM 28.4 °F - 28.4 °F 100% 30.01 in 7.0 mi Calm Calm - N/A   Mostly Cloudy
5:53 AM 30.2 °F - 30.2 °F 100% 30.02 in 7.0 mi Calm Calm - N/A   Overcast
6:13 AM 30.2 °F - 30.2 °F 100% 30.02 in 7.0 mi Calm Calm - N/A   Overcast
6:33 AM 30.2 °F - 30.2 °F 100% 30.03 in 7.0 mi Calm Calm - N/A   Overcast
6:53 AM 30.2 °F - 30.2 °F 100% 30.03 in 7.0 mi Calm Calm - N/A   Overcast
7:13 AM 30.2 °F - 30.2 °F 100% 30.03 in 5.0 mi Calm Calm - N/A   Mostly Cloudy
7:33 AM 30.2 °F - 30.2 °F 100% 30.04 in 3.0 mi Calm Calm - N/A   Unknown
7:53 AM 30.2 °F - 30.2 °F 100% 30.05 in 3.0 mi Calm Calm - N/A   Unknown
8:13 AM 30.2 °F - 30.2 °F 100% 30.05 in 4.0 mi Calm Calm - N/A   Scattered Clouds
8:33 AM 32.0 °F - 32.0 °F 100% 30.06 in 5.0 mi Calm Calm - N/A   Clear
8:53 AM 32.0 °F - 32.0 °F 100% 30.06 in 7.0 mi Calm Calm - N/A   Clear
9:13 AM 33.8 °F - 32.0 °F 93% 30.06 in 5.0 mi Calm Calm - N/A   Clear
9:33 AM 35.6 °F - 33.8 °F 93% 30.06 in 5.0 mi Calm Calm - N/A   Scattered Clouds
9:53 AM 37.4 °F - 33.8 °F 87% 30.06 in 7.0 mi Calm Calm - N/A   Scattered Clouds
10:13 AM 41.0 °F - 33.8 °F 76% 30.05 in 7.0 mi Calm Calm - N/A   Scattered Clouds
10:33 AM 42.8 °F - 33.8 °F 70% 30.04 in 7.0 mi Calm Calm - N/A   Clear
10:53 AM 44.6 °F - 33.8 °F 66% 30.04 in 10.0 mi Calm Calm - N/A   Clear
11:13 AM 46.4 °F - 33.8 °F 62% 30.04 in 10.0 mi Calm Calm - N/A   Clear
11:33 AM 48.2 °F - 32.0 °F 54% 30.02 in 10.0 mi NNW 3.5 mph - N/A   Clear
11:53 AM 50.0 °F - 32.0 °F 50% 30.01 in 10.0 mi Calm Calm - N/A   Clear
12:14 PM 50.0 °F - 28.4 °F 43% 30.00 in 10.0 mi WSW 17.3 mph 20.7 mph N/A   Clear
12:54 PM 46.4 °F 41.5 °F 26.6 °F 46% 30.00 in 10.0 mi WNW 10.4 mph - N/A   Mostly Cloudy
1:14 PM 46.4 °F 41.5 °F 26.6 °F 46% 30.00 in 10.0 mi West 10.4 mph - N/A   Overcast
1:34 PM 44.6 °F 39.7 °F 26.6 °F 49% 30.00 in 10.0 mi WNW 9.2 mph 16.1 mph N/A   Overcast
1:54 PM 44.6 °F 37.8 °F 28.4 °F 53% 30.00 in 10.0 mi West 15.0 mph - N/A   Overcast
2:14 PM 42.8 °F 37.5 °F 28.4 °F 57% 30.00 in 10.0 mi WSW 9.2 mph - N/A   Mostly Cloudy
2:34 PM 42.8 °F 37.0 °F 28.4 °F 57% 30.00 in 10.0 mi West 10.4 mph - N/A   Mostly Cloudy
2:54 PM 42.8 °F 37.5 °F 28.4 °F 57% 30.00 in 10.0 mi West 9.2 mph - N/A   Scattered Clouds
3:14 PM 42.8 °F 38.6 °F 30.2 °F 61% 30.01 in 10.0 mi West 6.9 mph - N/A   Mostly Cloudy
3:34 PM 41.0 °F 37.1 °F 32.0 °F 70% 30.01 in 10.0 mi West 5.8 mph - N/A   Mostly Cloudy
3:54 PM 41.0 °F 37.1 °F 32.0 °F 70% 30.01 in 10.0 mi WNW 5.8 mph - N/A   Scattered Clouds
4:14 PM 41.0 °F 39.0 °F 32.0 °F 70% 30.01 in 10.0 mi West 3.5 mph - N/A   Mostly Cloudy
4:34 PM 41.0 °F 38.0 °F 32.0 °F 70% 30.01 in 10.0 mi WNW 4.6 mph - N/A   Mostly Cloudy
4:54 PM 41.0 °F 38.0 °F 32.0 °F 70% 30.01 in 10.0 mi West 4.6 mph - N/A   Scattered Clouds
5:14 PM 41.0 °F 39.0 °F 32.0 °F 70% 30.01 in 10.0 mi West 3.5 mph - N/A   Mostly Cloudy
5:34 PM 41.0 °F - 32.0 °F 70% 30.01 in 10.0 mi Calm Calm - N/A   Mostly Cloudy
5:54 PM 41.0 °F 38.0 °F 32.0 °F 70% 30.01 in 10.0 mi West 4.6 mph - N/A   Mostly Cloudy
6:14 PM 41.0 °F 36.4 °F 32.0 °F 70% 30.02 in 10.0 mi WNW 6.9 mph - N/A   Mostly Cloudy
6:34 PM 41.0 °F 39.0 °F 32.0 °F 70% 30.03 in 10.0 mi West 3.5 mph - N/A   Mostly Cloudy
6:54 PM 39.2 °F 35.0 °F 32.0 °F 75% 30.03 in 10.0 mi West 5.8 mph - N/A   Mostly Cloudy
7:14 PM 39.2 °F 35.9 °F 32.0 °F 75% 30.02 in 10.0 mi West 4.6 mph - N/A   Scattered Clouds
7:34 PM 39.2 °F - 32.0 °F 75% 30.03 in 10.0 mi Calm Calm - N/A   Scattered Clouds
7:54 PM 39.2 °F 35.0 °F 30.2 °F 70% 30.03 in 10.0 mi West 5.8 mph - N/A   Scattered Clouds
8:14 PM 37.4 °F 32.8 °F 30.2 °F 75% 30.04 in 10.0 mi West 5.8 mph - N/A   Scattered Clouds
8:35 PM 37.4 °F 32.1 °F 28.4 °F 70% 30.05 in 10.0 mi NW 6.9 mph 16.1 mph N/A   Scattered Clouds
8:55 PM 37.4 °F 33.8 °F 28.4 °F 70% 30.05 in 10.0 mi WNW 4.6 mph - N/A   Mostly Cloudy
9:15 PM 37.4 °F - 28.4 °F 70% 30.05 in 10.0 mi Calm Calm - N/A   Overcast
9:35 PM 37.4 °F 32.1 °F 28.4 °F 70% 30.05 in 10.0 mi WNW 6.9 mph - N/A   Overcast
9:55 PM 35.6 °F - 28.4 °F 75% 30.05 in 10.0 mi Calm Calm - N/A   Mostly Cloudy
10:15 PM 37.4 °F - 28.4 °F 70% 30.05 in 10.0 mi Calm Calm - N/A   Mostly Cloudy
10:35 PM 37.4 °F 33.8 °F 28.4 °F 70% 30.04 in 10.0 mi West 4.6 mph - N/A   Scattered Clouds
10:55 PM 37.4 °F - 28.4 °F 70% 30.04 in 10.0 mi Calm Calm - N/A   Mostly Cloudy
11:15 PM 35.6 °F - 30.2 °F 81% 30.03 in 10.0 mi Calm Calm - N/A   Overcast
11:35 PM 35.6 °F 32.8 °F 30.2 °F 81% 30.03 in 10.0 mi West 3.5 mph - N/A   Overcast
11:55 PM 35.6 °F 32.8 °F 28.4 °F 75% 30.02 in 10.0 mi SW 3.5 mph - N/A   Mostly Cloudy